Overview Statistics Trail Chart Weather Telemetry Raw packets
 

This is the latest recevied weather packets stored in our database for station/object DL0BB-10. If no packets are shown the sender has not sent any weather packets the latest 10 day(s).

<< 5 6 7 8 9 10 11 >>
Time Temp. Humidity Pressure Rain* Wind** Luminosity Snow
1788560996 27.22° C 39% 1017.7 hPa - - - -
1788560096 27.78° C 38% 1017.7 hPa - - - -
1788559196 28.33° C 36% 1017.5 hPa - - - -
1788558296 27.78° C 39% 1017.1 hPa - - - -
1788557395 27.78° C 38% 1016.8 hPa - - - -
1788555594 27.78° C 39% 1016.2 hPa - - - -
1788554698 28.33° C 37% 1016.1 hPa - - - -
1788553798 28.89° C 36% 1016.1 hPa - - - -
1788552898 27.78° C 38% 1016.1 hPa - - - -
1788551998 28.33° C 37% 1016 hPa - - - -
1788551098 28.89° C 37% 1015.9 hPa - - - -
1788550197 27.78° C 38% 1015.7 hPa - - - -
1788549297 28.33° C 37% 1015.5 hPa - - - -
1788548397 28.33° C 36% 1015.4 hPa - - - -
1788547497 27.78° C 37% 1015.3 hPa - - - -
1788546597 28.33° C 36% 1015.1 hPa - - - -
1788545697 28.89° C 36% 1014.8 hPa - - - -
1788544797 27.78° C 37% 1014.7 hPa - - - -
1788543896 28.33° C 37% 1014.6 hPa - - - -
1788542996 28.89° C 36% 1014.5 hPa - - - -
1788542096 28.33° C 38% 1014.5 hPa - - - -
1788541196 28.33° C 39% 1014.5 hPa - - - -
1788540296 28.33° C 39% 1014.5 hPa - - - -
1788539396 28.33° C 39% 1014.5 hPa - - - -
1788538496 27.78° C 40% 1014.5 hPa - - - -

* Rain since midnight (hover to see other rain measurements)
** Current wind speed in m/s (hover to see current wind gust speed)